Regional Weather Roundup
Issued by NWS

Home | Current Version | Previous Version | Text Only | Print | Product List | Glossary On
Versions: 1 2 3 4 5 6 7 8 9 10 11 12 13 14 15 16 17 18 19 20 21 22 23 24 25 26 27 28 29 30 31 32 33 34 35 36 37 38 39 40 41 42 43 44 45 46 47 48 49 50
000
ASUS44 KMEG 090710
RWRTN
TENNESSEE HOURLY STATE WEATHER ROUNDUP
NATIONAL WEATHER SERVICE MEMPHIS TN
100 AM CST FRI DEC 09 2016

TNZ002-004-019-021-049-052-054-088>092-090800-
WEST TENNESSEE

CITY           SKY/WX    TMP DP  RH WIND       PRES   REMARKS
MEMPHIS INTL   CLEAR     28  17  63 N8        30.59R WCI  20
NWS MEMPHIS      N/A     26 N/A N/A MISG        N/A
JACKSON        CLEAR     26  18  71 N5        30.58S WCI  20
DYERSBURG      CLEAR     27  16  63 N9        30.59S WCI  17
UNION CITY     CLEAR     21  16  79 NW6       30.58R WCI  14
PARIS          CLEAR     18  12  79 N5        30.56R WCI  11
HUNTINGDON     PTCLDY    25  16  68 CALM      30.56R
LEXINGTON      CLEAR     23  12  63 N5        30.54R WCI  17
$$

TNZ008-025-027-028-033-062-065-066-090800-
NORTH MIDDLE TENNESSEE

CITY           SKY/WX    TMP DP  RH WIND       PRES   REMARKS
NASHVILLE      CLEAR     25  14  63 NW7       30.53S WCI  17
PORTLAND       CLOUDY    25  18  74 NW6       30.51S WCI  18
CLARKSVILLE    CLEAR     22  13  68 NW7       30.55R WCI  13
SMYRNA         PTCLDY    25  17  72 NW7       30.54S WCI  17
GALLATIN       CLOUDY    25  16  68 NW3       30.56R
CROSSVILLE     CLEAR     21  14  74 NW8       30.40R WCI  11
$$

TNZ061-075-076-078-094-096-097-090800-
SOUTH MIDDLE TENNESSEE

CITY           SKY/WX    TMP DP  RH WIND       PRES   REMARKS
FAYETTEVILLE   CLEAR     27  16  63 N7        30.48R WCI  19
TULLAHOMA      CLEAR     23  14  68 N12       30.48R WCI  12
WINCHESTER     CLEAR     25  16  68 N10       30.48R WCI  15
MCMINNVILLE    CLEAR     23  16  74 NW5         N/A  WCI  17
COLUMBIA       CLEAR     25  16  68 N3        30.50S
SHELBYVILLE    CLEAR     23  18  80 N7        30.52R WCI  15
$$

TNZ017-018-042-046-047-090800-
NORTHEAST TENNESSEE

CITY           SKY/WX    TMP DP  RH WIND       PRES   REMARKS
TRI CITIES     PTCLDY    26  14  60 NW8       30.34S WCI  18
ELIZABETHTON   CLOUDY    27  14  59 W3        30.33R
$$

TNZ012-013-036-069-073-074-090800-
CENTRAL EAST TENNESSEE

CITY           SKY/WX    TMP DP  RH WIND       PRES   REMARKS
KNOXVILLE      CLEAR     28  16  60 N5        30.42R WCI  23
OAK RIDGE      PTCLDY    27  16  63 CALM      30.44R
DOWNTOWN KNOXV CLEAR     28  18  64 VRB5      30.44R WCI  23
GATLINBURG     CLEAR     25  14  63 CALM      30.41R
MORRISTOWN     CLOUDY    27  16  63 NW7       30.38R WCI  19
JACKSBORO      CLOUDY    27  16  63 VRB3      30.45R
$$

TNZ083-085-099-090800-
SOUTHEAST TENNESSEE

CITY           SKY/WX    TMP DP  RH WIND       PRES   REMARKS
CHATTANOOGA    CLEAR     30  15  53 N10       30.46S WCI  21
$$

SKY/WX REPORTED AS FAIR MEANS FEW OR NO CLOUDS BELOW
12 THOUSAND FEET.





USA.gov is the U.S. government's official web portal to all federal, state and local government web resources and services.